Dickinson, ND

1:30 PM MST on January 19, 2018 (GMT -0700)
Dickinson Municipal

Weather History for KDIK - March, 2013

Change the Weather History Date:

Friday, March 22, 2013

  Actual Average Record
Temperature  
Mean Temperature 19 °F 32 °F  
Max Temperature 29 °F 44 °F 85 °F (1910)
Min Temperature 8 °F 21 °F -18 °F (1898)
Degree Days  
Heating Degree Days 46 33  
Month to date heating degree days 882 811  
Since 1 July heating degree days 6860 7105  
Cooling Degree Days 0 0  
Month to date cooling degree days 0 0  
Year to date cooling degree days 0 0  
Moisture  
Dew Point 15 °F    
Average Humidity 81    
Maximum Humidity 92    
Minimum Humidity 69    
Precipitation  
Precipitation 0.04 in 0.03 in 0.60 in (1893)
Month to date precipitation 0.34 0.43  
Year to date precipitation 0.42 1.06  
Sea Level Pressure  
Sea Level Pressure 29.93 in    
Wind  
Wind Speed 10 mph (SE)    
Max Wind Speed 21 mph    
Max Gust Speed 25 mph    
Visibility 5 miles    
Events Snow    
T = Trace of Precipitation, MM = Missing Value Source: NWS Daily Summary

Daily Weather History Graph

Daily Weather History Graph

Search for Another Location

Airport or City:

Trip Planner

Search our weather history database for the weather conditions in past years. The results will help you decide how hot, cold, wet, or windy it might be!

Date:

Astronomy

Mar. 22, 2013 Rise Set
Actual Time 6:49 AM MDT 7:07 PM MDT
Civil Twilight 6:19 AM MDT 7:37 PM MDT
Nautical Twilight 5:43 AM MDT 8:13 PM MDT
Astronomical Twilight 5:06 AM MDT 8:50 PM MDT
Moon 2:21 PM MDT (3/22) 4:07 AM MDT (3/22)
Length of Visible Light 13h 18m
Length of Day
12h 17m
Waxing Gibbous, 78% of the Moon is Illuminated
Mar 22
Waxing Gibbous
Mar 27
Full
Apr 2
Last Quarter
Apr 10
New
Apr 18
First Quarter

Hourly Weather History & Observations

Time (MDT) Temp. Windchill Dew Point Humidity Pressure Visibility Wind Dir Wind Speed Gust Speed Precip Events Conditions
12:53 AM 19.4 °F 7.9 °F 17.6 °F 93% 29.85 in 2.0 mi ESE 10.4 mph - 0.00 in Snow Light Snow
12:56 AM 19.9 °F 8.6 °F 17.1 °F 89% 29.97 in 1.8 mi SE 10.4 mph - 0.00 in Snow Light Snow
1:10 AM 19.4 °F 7.9 °F 17.6 °F 93% 29.85 in 2.0 mi SE 10.4 mph - 0.01 in Snow Light Snow
1:21 AM 19.4 °F 7.2 °F 15.8 °F 86% 29.85 in 4.0 mi SE 11.5 mph - 0.01 in Snow Light Snow
1:31 AM 19.4 °F 9.5 °F 17.6 °F 93% 29.85 in 2.5 mi SE 8.1 mph - 0.01 in Snow Light Snow
1:40 AM 19.4 °F 5.5 °F 15.8 °F 86% 29.85 in 1.5 mi SE 15.0 mph - 0.01 in Snow Light Snow
1:56 AM 19.9 °F 7.3 °F 16.0 °F 85% 29.96 in 1.5 mi SE 12.7 mph - 0.01 in Snow Light Snow
2:56 AM 19.0 °F 7.5 °F 15.1 °F 85% 29.95 in 1.2 mi SE 10.4 mph - 0.01 in Snow Light Snow
3:56 AM 18.0 °F 5.4 °F 15.1 °F 88% 29.93 in 1.5 mi SE 11.5 mph - 0.00 in Snow Light Snow
4:56 AM 17.1 °F 4.3 °F 14.0 °F 88% 29.94 in 1.2 mi SE 11.5 mph - 0.01 in Snow Light Snow
5:36 AM 15.8 °F 2.1 °F 12.2 °F 86% 29.83 in 1.0 mi SE 12.7 mph - 0.00 in Snow Light Snow
5:44 AM 15.8 °F 2.7 °F 12.2 °F 86% 29.83 in 1.5 mi SE 11.5 mph - 0.00 in Snow Light Snow
5:54 AM 15.8 °F 2.7 °F 12.2 °F 86% 29.83 in 2.0 mi SE 11.5 mph - 0.00 in Snow Light Snow
5:56 AM 16.0 °F 3.6 °F 12.9 °F 88% 29.94 in 1.8 mi SE 10.4 mph - 0.00 in Snow Light Snow
6:47 AM 15.8 °F 4.2 °F 12.2 °F 86% 29.83 in 2.5 mi SE 9.2 mph - 0.01 in Snow Light Snow
6:54 AM 15.8 °F 4.2 °F 12.2 °F 86% 29.83 in 3.0 mi SE 9.2 mph - 0.01 in Snow Light Snow
6:56 AM 16.0 °F 4.4 °F 12.9 °F 88% 29.95 in 3.0 mi SE 9.2 mph - 0.01 in Snow Light Snow
7:01 AM 15.8 °F 3.4 °F 12.2 °F 86% 29.83 in 1.8 mi SE 10.4 mph - 0.00 in Snow Light Snow
7:14 AM 15.8 °F 4.2 °F 12.2 °F 86% 29.83 in 1.0 mi SE 9.2 mph - 0.00 in Snow Light Snow
7:26 AM 15.8 °F 4.2 °F 12.2 °F 86% 29.83 in 3.0 mi SE 9.2 mph - 0.00 in Snow Light Snow
7:33 AM 15.8 °F 4.2 °F 12.2 °F 86% 29.83 in 4.0 mi SE 9.2 mph - 0.00 in Snow Light Snow
7:56 AM 17.1 °F 5.0 °F 12.9 °F 84% 29.95 in 3.0 mi SE 10.4 mph - 0.00 in Snow Light Snow
8:39 AM 17.6 °F 6.4 °F 14.0 °F 86% 29.83 in 2.0 mi SSE 9.2 mph - 0.00 in Snow Light Snow
8:56 AM 19.0 °F 6.1 °F 14.0 °F 81% 29.94 in 2.0 mi SSE 12.7 mph - 0.00 in Snow Light Snow
9:27 AM 19.4 °F 7.9 °F 15.8 °F 86% 29.83 in 3.0 mi SSE 10.4 mph - 0.00 in Snow Light Snow
9:56 AM 21.0 °F 9.9 °F 16.0 °F 81% 29.94 in 5.0 mi SSE 10.4 mph - 0.00 in   Haze
10:20 AM 21.2 °F 9.5 °F 15.8 °F 80% 29.82 in 2.0 mi SE 11.5 mph - 0.00 in Snow Light Snow
10:29 AM 21.2 °F 10.9 °F 15.8 °F 80% 29.83 in 3.0 mi SSE 9.2 mph - 0.00 in Snow Light Snow
10:39 AM 21.2 °F 10.9 °F 17.6 °F 86% 29.82 in 5.0 mi SE 9.2 mph - 0.00 in   Haze
10:56 AM 23.0 °F 13.1 °F 17.1 °F 78% 29.95 in 8.0 mi SSE 9.2 mph - 0.00 in   Overcast
11:56 AM 25.0 °F 18.1 °F 19.0 °F 78% 29.94 in 10.0 mi SSW 5.8 mph - N/A   Overcast
12:56 PM 26.1 °F 21.9 °F 19.0 °F 75% 29.96 in 10.0 mi Variable 3.5 mph - N/A   Overcast
1:14 PM 26.6 °F - 19.4 °F 74% 29.85 in 10.0 mi Calm Calm - N/A   Overcast
1:56 PM 27.0 °F 21.6 °F 19.0 °F 72% 29.95 in 10.0 mi ESE 4.6 mph - N/A   Overcast
2:56 PM 27.0 °F - 19.9 °F 75% 29.97 in 10.0 mi Calm Calm - N/A   Overcast
3:56 PM 28.0 °F - 19.9 °F 72% 29.98 in 10.0 mi Calm Calm - N/A   Overcast
4:56 PM 28.0 °F 24.2 °F 21.0 °F 75% 30.00 in 10.0 mi NE 3.5 mph - N/A   Overcast
5:37 PM 26.6 °F 21.2 °F 21.2 °F 80% 29.91 in 7.0 mi NNE 4.6 mph - 0.00 in Snow Light Snow
5:56 PM 26.1 °F 15.0 °F 21.0 °F 81% 30.03 in 9.0 mi NW 12.7 mph - 0.00 in   Overcast
6:56 PM 21.9 °F 6.9 °F 18.0 °F 85% 30.07 in 8.0 mi WNW 19.6 mph 24.2 mph 0.00 in   Overcast
7:56 PM 19.9 °F 4.3 °F 15.1 °F 81% 30.11 in 10.0 mi WNW 19.6 mph 24.2 mph N/A   Overcast
8:04 PM 19.4 °F 4.1 °F 14.0 °F 80% 29.98 in 10.0 mi WNW 18.4 mph - N/A   Overcast
8:56 PM 18.0 °F 2.6 °F 12.0 °F 78% 30.13 in 8.0 mi WNW 17.3 mph - 0.00 in Snow Light Snow
10:16 PM 17.6 °F 3.7 °F 12.2 °F 79% 30.02 in 10.0 mi WNW 13.8 mph - 0.00 in   Overcast
10:56 PM 16.0 °F 1.7 °F 10.9 °F 81% 30.15 in 10.0 mi WNW 13.8 mph - 0.00 in   Overcast
11:08 PM 15.8 °F 0.9 °F 10.4 °F 79% 30.03 in 10.0 mi WNW 15.0 mph - N/A   Overcast
11:56 PM 10.9 °F -2.6 °F 7.0 °F 84% 30.17 in 10.0 mi West 10.4 mph - N/A   Mostly Cloudy